Home   Weather   Murmansk   Past weeks

Flag for Russia Past Weather in Murmansk, Russia — Yesterday and Last 2 Weeks

Now
19 °F

Partly cloudy.


Feels Like: 14 °F
Forecast: 22 / 29 °F
Wind: 3 mph from Southeast

Location: Murmansk Airport

Current Time: Dec 8, 2016 at 11:34:03 pm

Latest Report: Dec 8, 2016 at 10:30 pm


Visibility: N/A

Pressure: 29.03 "Hg

Humidity: 93%

Dew Point: 18 °F

Location of MurmanskLocation

Past Weather in Murmansk — Graph

°F

Murmansk Temperature Yesterday

Maximum temperature yesterday: 21 °F (at 10:30 am)
Minimum temperature yesterday: 3 °F (at 12:00 am)
Average temperature yesterday: 17 °F

High & Low Weather Summary for the Past Weeks

 TemperatureHumidityPressure
High32 °F (Nov 24, 1:30 am)100% (Nov 24, 12:00 am)30.01 "Hg (Nov 24, 12:00 am)
Low-20 °F (Dec 5, 9:00 am)68% (Dec 5, 12:00 pm)29.06 "Hg (Dec 8, 10:00 pm)
Average10 °F86%29.61 "Hg
* Reported Nov 23 10:00 pm — Dec 8 10:00 pm, Murmansk, Weather by CustomWeather, © 2016

Note: Actual official high and low records may vary slightly from our data, if they occured in-between our weather recording intervals... More about our weather records

Advertising

Murmansk Weather History for the Previous 24 Hours

Scroll right to see more
 ConditionsComfort  
Time TempWeatherWind HumidityBarometerVisibility
10:00 pm
Thu, Dec 8
19 °FPassing clouds.1 mph93%29.06 "HgN/A
9:30 pm19 °FPassing clouds.3 mph93%29.09 "HgN/A
9:00 pm19 °FPassing clouds.1 mph93%29.12 "HgN/A
8:00 pm21 °FPassing clouds.1 mph86%29.15 "HgN/A
7:30 pm21 °FPassing clouds.1 mph86%29.15 "Hg5 mi
7:00 pm19 °FIce fog.3 mph93%29.18 "Hg2 mi
6:30 pm19 °FPartly sunny.1 mph86%29.18 "Hg6 mi
6:00 pm16 °FPartly sunny.1 mph86%29.18 "Hg6 mi
5:30 pm14 °FPartly sunny.1 mph85%29.18 "Hg4 mi
5:00 pm12 °FIce fog.1 mph85%29.18 "Hg3 mi
4:30 pm10 °FPartly sunny.No wind85%29.18 "HgN/A
4:00 pm12 °FPartly sunny.1 mph85%29.21 "HgN/A
3:30 pm12 °FPartly sunny.1 mph85%29.21 "HgN/A
3:00 pm14 °FPassing clouds.1 mph92%29.21 "HgN/A
2:30 pm19 °FScattered clouds.1 mph93%29.21 "HgN/A
2:00 pm19 °FPartly sunny.3 mph93%29.21 "HgN/A
1:30 pm21 °FPartly sunny.1 mph93%29.21 "HgN/A
1:00 pm21 °FPartly sunny.1 mph93%29.21 "HgN/A
12:30 pm23 °FPartly sunny.1 mph86%29.21 "HgN/A
12:00 pm23 °FPartly sunny.1 mph86%29.21 "HgN/A
11:30 am21 °FPartly sunny.1 mph93%29.21 "HgN/A
11:00 am19 °FPartly sunny.1 mph86%29.21 "HgN/A
10:00 am16 °FPartly sunny.1 mph86%29.21 "HgN/A
9:30 am16 °FPartly sunny.1 mph93%29.21 "HgN/A
9:00 am18 °FPartly sunny.No wind86%29.24 "HgN/A
8:30 am18 °FPartly sunny.1 mph86%29.24 "HgN/A
8:00 am18 °FPartly sunny.1 mph86%29.24 "HgN/A
7:30 am18 °FPartly sunny.1 mph93%29.24 "HgN/A
7:00 am18 °FPartly sunny.3 mph86%29.27 "HgN/A
6:30 am16 °FPartly sunny.3 mph86%29.27 "HgN/A
6:00 am12 °FPartly sunny.1 mph85%29.30 "HgN/A
5:00 am9 °FPassing clouds.1 mph85%29.30 "HgN/A
4:00 am9 °FPassing clouds.1 mph92%29.33 "HgN/A
3:30 am10 °FPassing clouds.1 mph85%29.33 "HgN/A
3:00 am12 °FPassing clouds.No wind92%29.36 "HgN/A
2:30 am14 °FPassing clouds.1 mph85%29.36 "HgN/A
2:00 am14 °FPassing clouds.No wind92%29.36 "HgN/A
1:00 am14 °FPassing clouds.1 mph85%29.36 "HgN/A
12:00 am14 °FPartly sunny.1 mph85%29.36 "HgN/A
11:30 pm
Wed, Dec 7
14 °FPassing clouds.1 mph85%29.36 "HgN/A
11:00 pm14 °FPassing clouds.1 mph85%29.36 "HgN/A
Weather by CustomWeather, © 2016

See weather overviewHow to use our weather pages